Regional Weather Roundup
Issued by NWS Green Bay, WI

Home | Current Version | Previous Version | Text Only | Print | Product List | Glossary On
Versions: 1 2 3 4 5 6 7 8 9 10 11 12 13 14 15 16 17 18 19 20 21 22 23 24 25 26 27 28 29 30 31 32 33 34 35 36 37 38 39 40 41 42 43 44 45 46 47 48 49 50
100
ASUS43 KGRB 010311
RWRGRB

NORTH-CENTRAL AND NORTHEAST WISCONSIN REGIONAL WEATHER ROUNDUP
NATIONAL WEATHER SERVICE GREEN BAY WI
1000 PM CDT SUN APR 30 2017

WIZ005-009-010>012-018-019-010400-
NORTH CENTRAL WISCONSIN

CITY           SKY/WX    TMP DP  RH WIND       PRES   REMARKS
IRONWOOD       CLOUDY    40  25  55 E12       29.84F
MANITOWISH WTR CLOUDY    39  28  62 NE10G16   29.80F
ARBOR VITAE    CLOUDY    42  35  76 E8G17     29.78F
EAGLE RIVER    RAIN      38  33  81 E9        29.80F
LAND O LAKES   CLOUDY    41  31  67 E10G16    29.84F
RHINELANDER    LGT RAIN  40  37  89 E17G26    29.79F
PHILLIPS       DRIZZLE   37  33  85 NE9G16    29.76F
ANTIGO         LGT RAIN  35  34  96 E16       29.79F
TOMAHAWK       RAIN      38  36  91 E13G20    29.78F
MERRILL        LGT RAIN  37  37  97 E15G23    29.76F
$$

WIZ013-073-010400-
NORTHEAST WISCONSIN

CITY           SKY/WX    TMP DP  RH WIND       PRES   REMARKS
IRON MOUNTAIN  LGT RAIN  40  32  73 E10G20    29.86F
MARINETTE      CLOUDY    38  35  89 E21       29.88F
OCONTO         CLOUDY    38  34  87 E10G21    29.85F
$$

WIZ017-030-035>037-045-010400-
CENTRAL WISCONSIN

CITY           SKY/WX    TMP DP  RH WIND       PRES   REMARKS
MEDFORD        LGT RAIN  38  35  89 E21G28    29.73F
WAUSAU         CLOUDY    37  35  92 E15G29    29.75F
MOSINEE        CLOUDY    36  36 100 NE16G24   29.75F
MARSHFIELD     CLOUDY    37  34  89 E22G30    29.70F
WISC RAPIDS    CLOUDY    37  36  96 E18G28    29.70F
STEVENS POINT  CLOUDY    35  35 100 E22G29    29.75F
WAUPACA        CLOUDY    39  37  91 NE13G21   29.77F
SHAWANO        LGT RAIN  39  37  89 NE18G29   29.83F
CLINTONVILLE   CLOUDY    36  34  93 E14G25    29.80F
WAUTOMA        CLOUDY    37  36  96 NE16G26   29.72F
$$

WIZ038-039-048-051-010400-
FOX VALLEY

CITY           SKY/WX    TMP DP  RH WIND       PRES   REMARKS
NWS GREEN BAY  CLOUDY    39  38  96 NE20G29   29.81F
APPLETON       LGT RAIN  37  37 100 E17G26    29.75F FOG
OSHKOSH        CLOUDY    39  37  92 NE22G31   29.72F
FOND DU LAC    RAIN      40  36  86 NE14      29.73F
$$

WIZ022-050-052-010400-
EAST CENTRAL WISCONSIN

CITY           SKY/WX    TMP DP  RH WIND       PRES   REMARKS
EPHRAIM        CLOUDY    36  36  99 E17G24    29.85F
WASHINGTON ISL CLOUDY    37  34  91 E13       29.88F
STURGEON BAY   CLOUDY    38  34  85 E17G25    29.84F
MANITOWOC      CLOUDY    39  37  92 NE12G17   29.78F
SHEBOYGAN      CLOUDY    40  38  93 NE20      29.74F
$$

LMZ563-521-522-541>543-010400-
LAKESHORE

STATION/POSITION TIME  TEMP    WIND        PRES    VSBY  WAVE
                       AIR SEA DIR/SP/G                  HT/PER
                 (UTC) (F)     (DEG/KT/KT) (MB)    (MI)  (FT/S)
SHEBOYGAN LKSHOR 0300   40      30/ 20/ 23 1007.7F
KEWAUNEE LKSHORE 0248   39      40/ 15/ 22 1009.6F
NORTHPORT PIER   0240   38      70/ 18/ 24 1012.5S
N MID LAKE BUOY  0250   37 37   80/ 17/ 21 1013.1F         4/ 5
CHAMBERS ISLAND  0240   38      50/ 17/ 23 1011.9S
MENOMINEE LKSHOR 0248   39      50/ 24/ 28 1010.5F
$$




USA.gov is the U.S. government's official web portal to all federal, state and local government web resources and services.